Weather History for Brownsville, TX

Change the Weather History Date:

Sunday, November 25, 2012

  Actual Average Record
Temperature  
Mean Temperature 70 °F 67 °F  
Max Temperature 81 °F 76 °F 88 °F (1965)
Min Temperature 58 °F 57 °F 35 °F (1881)
Degree Days  
Heating Degree Days 0 3  
Month to date heating degree days 1 36  
Since 1 July heating degree days 3 40  
Cooling Degree Days 5 4  
Month to date cooling degree days 201 160  
Year to date cooling degree days 4634 3925  
Growing Degree Days 20 (Base 50)    
Moisture  
Dew Point 60 °F    
Average Humidity 76    
Maximum Humidity 93    
Minimum Humidity 58    
Precipitation  
Precipitation T in 0.06 in 1.28 in (1987)
Month to date precipitation 0.15 1.60  
Year to date precipitation 21.07 26.07  
Sea Level Pressure  
Sea Level Pressure 30.04 in    
Wind  
Wind Speed 7 mph (WSW)    
Max Wind Speed 15 mph    
Max Gust Speed 18 mph    
Visibility 10 miles    
Events Rain    
T = Trace of Precipitation, MM = Missing Value Source: NWS Daily Summary

Daily Weather History Graph

Daily Weather History Graph

Search for Another Location

Airport:

Trip Planner

Search our weather history database for the weather conditions in past years. The results will help you decide how hot, cold, wet, or windy it might be!

Date:

Astronomy

Nov. 25, 2012 Rise Set
Actual Time 6:55 AM CST 5:38 PM CST
Civil Twilight 6:30 AM CST 6:02 PM CST
Nautical Twilight 6:02 AM CST 6:31 PM CST
Astronomical Twilight 5:34 AM CST 6:58 PM CST
Moon 3:46 PM CST (11/25) 4:21 AM CST (11/25)
Length of Visible Light 11h 32m
Length of Day
10h 42m
Waxing Gibbous, 93% of the Moon is Illuminated
Nov 25
Waxing Gibbous
Nov 28
Full
Dec 6
Last Quarter
Dec 13
New
Dec 19
First Quarter

Hourly Weather History & Observations

Time (CST) Temp. Heat Index Dew Point Humidity Pressure Visibility Wind Dir Wind Speed Gust Speed Precip Events Conditions
12:53 AM 59.0 °F - 54.0 °F 83% 30.14 in 10.0 mi NW 5.8 mph - N/A   Overcast
1:48 AM 59.0 °F - 53.6 °F 82% 30.13 in 10.0 mi NW 5.8 mph - N/A   Overcast
1:53 AM 59.0 °F - 53.1 °F 81% 30.12 in 10.0 mi NW 5.8 mph - N/A   Overcast
2:19 AM 59.0 °F - 53.6 °F 82% 30.11 in 10.0 mi NW 5.8 mph - N/A   Overcast
2:53 AM 59.0 °F - 53.1 °F 81% 30.09 in 10.0 mi NNW 4.6 mph - N/A   Mostly Cloudy
3:53 AM 60.1 °F - 54.0 °F 80% 30.09 in 10.0 mi NW 3.5 mph - N/A   Overcast
4:53 AM 60.1 °F - 55.0 °F 83% 30.07 in 10.0 mi NNW 3.5 mph - 0.00 in   Overcast
5:12 AM 60.8 °F - 55.4 °F 82% 30.08 in 10.0 mi NW 5.8 mph - N/A   Overcast
5:27 AM 60.8 °F - 55.4 °F 82% 30.07 in 10.0 mi NNW 5.8 mph - N/A   Overcast
5:53 AM 61.0 °F - 55.0 °F 81% 30.08 in 10.0 mi NNW 4.6 mph - N/A   Overcast
6:26 AM 60.8 °F - 55.4 °F 82% 30.08 in 10.0 mi North 5.8 mph - 0.00 in Rain Light Rain
6:53 AM 60.1 °F - 55.0 °F 83% 30.08 in 10.0 mi North 3.5 mph - 0.00 in   Mostly Cloudy
7:53 AM 62.1 °F - 55.9 °F 80% 30.09 in 10.0 mi North 6.9 mph - N/A   Overcast
8:53 AM 66.9 °F - 57.0 °F 70% 30.09 in 10.0 mi NNE 4.6 mph - N/A   Partly Cloudy
9:53 AM 73.0 °F - 61.0 °F 66% 30.09 in 10.0 mi NNE 3.5 mph - N/A   Clear
10:53 AM 77.0 °F - 64.9 °F 66% 30.08 in 10.0 mi South 5.8 mph - N/A   Partly Cloudy
11:53 AM 80.1 °F 81.7 °F 64.0 °F 58% 30.05 in 10.0 mi SSE 8.1 mph - N/A   Clear
12:46 PM 77.0 °F - 64.4 °F 65% 30.02 in 10.0 mi SSW 8.1 mph - N/A   Mostly Cloudy
12:53 PM 78.1 °F - 64.0 °F 62% 30.01 in 10.0 mi South 6.9 mph - N/A   Mostly Cloudy
1:01 PM 80.6 °F 82.3 °F 64.4 °F 58% 30.01 in 10.0 mi Variable 4.6 mph - N/A   Scattered Clouds
1:53 PM 80.1 °F 81.7 °F 64.0 °F 58% 29.98 in 10.0 mi South 12.7 mph 17.3 mph N/A   Mostly Cloudy
2:53 PM 80.1 °F 81.7 °F 64.0 °F 58% 29.96 in 10.0 mi SSE 12.7 mph - N/A   Mostly Cloudy
3:53 PM 78.1 °F - 64.0 °F 62% 29.95 in 10.0 mi South 11.5 mph - N/A   Partly Cloudy
4:53 PM 75.9 °F - 62.1 °F 62% 29.95 in 10.0 mi South 10.4 mph - N/A   Clear
5:53 PM 71.1 °F - 62.1 °F 73% 29.96 in 10.0 mi SSE 10.4 mph - N/A   Clear
6:53 PM 66.9 °F - 62.1 °F 84% 29.97 in 10.0 mi SSE 6.9 mph - N/A   Clear
7:53 PM 64.9 °F - 62.1 °F 90% 29.99 in 10.0 mi SSE 4.6 mph - N/A   Clear
8:53 PM 64.0 °F - 63.0 °F 96% 30.00 in 10.0 mi South 3.5 mph - N/A   Clear
9:53 PM 64.0 °F - 63.0 °F 96% 30.00 in 10.0 mi SSE 5.8 mph - N/A   Clear
10:53 PM 64.0 °F - 63.0 °F 96% 29.99 in 10.0 mi SSE 5.8 mph - N/A   Clear
11:53 PM 64.0 °F - 63.0 °F 96% 29.98 in 10.0 mi SSE 5.8 mph - N/A   Clear